When you browse on this site, cookies collect data to enhance your experience and personalize the content and advertising you see.
Visit our Privacy Policy to learn more. By continuing to use the site, you agree to this use of cookies and data.
  • En España
  • Lista de países
  • Para 7 días
  • Temperatura del agua
  • Mapa Satelital
  • El tiempo en el mapa
  • Informadores
  • user-avatar
    Iniciar sesión

    Tiempo cada hora Mundu

    Hoy, 16 Junio, Domingo

    Tiempo Temperatura Precipitaciones Viento Presión Humedad
    00:00 +26°C° 0 mm 1 mps 725 mmHg 73%
    01:00 +26°C° 0 mm 1 mps 725 mmHg 74%
    02:00 +26°C° 0 mm 1 mps 724 mmHg 77%
    03:00 +25°C° 0 mm 1 mps 724 mmHg 79%
    04:00 +25°C° 0 mm 1 mps 724 mmHg 82%
    05:00 +25°C° 0 mm 1 mps 724 mmHg 82%
    06:00 +26°C° 0 mm 2 mps 725 mmHg 82%
    07:00 +26°C° 0 mm 2 mps 725 mmHg 84%
    08:00 +28°C° 0 mm 1 mps 725 mmHg 77%
    09:00 +30°C° 0 mm 1 mps 725 mmHg 71%
    10:00 +31°C° 0 mm 1 mps 725 mmHg 64%
    11:00 +33°C° 0 mm 1 mps 725 mmHg 57%
    12:00 +35°C° 0 mm 1 mps 725 mmHg 51%
    13:00 +35°C° 0 mm 0 mps 725 mmHg 44%
    14:00 +37°C° 0 mm 1 mps 724 mmHg 46%
    15:00 +36°C° 0 mm 1 mps 723 mmHg 47%
    16:00 +35°C° 0 mm 1 mps 722 mmHg 49%
    17:00 +33°C° 0 mm 1 mps 723 mmHg 52%
    18:00 +32°C° 0 mm 1 mps 723 mmHg 55%
    19:00 +31°C° 0 mm 1 mps 723 mmHg 58%
    20:00 +30°C° 0 mm 1 mps 724 mmHg 61%
    21:00 +29°C° 0 mm 1 mps 724 mmHg 65%
    22:00 +29°C° 0 mm 2 mps 725 mmHg 68%
    23:00 +28°C° 0 mm 2 mps 724 mmHg 71%

    Mañana, 17 Junio, Lunes

    Tiempo Temperatura Precipitaciones Viento Presión Humedad
    00:00 +28°C° 0 mm 2 mps 724 mmHg 73%
    01:00 +27°C° 0 mm 3 mps 724 mmHg 76%
    02:00 +27°C° 0 mm 3 mps 724 mmHg 78%
    03:00 +26°C° 0 mm 2 mps 724 mmHg 79%
    04:00 +26°C° 0 mm 2 mps 724 mmHg 81%
    05:00 +26°C° 0 mm 2 mps 724 mmHg 80%
    06:00 +26°C° 0 mm 2 mps 724 mmHg 79%
    07:00 +26°C° 0 mm 2 mps 725 mmHg 78%
    08:00 +29°C° 0 mm 2 mps 725 mmHg 70%
    09:00 +31°C° 0 mm 2 mps 725 mmHg 62%
    10:00 +34°C° 0 mm 2 mps 725 mmHg 54%
    11:00 +35°C° 0 mm 2 mps 725 mmHg 50%
    12:00 +36°C° 0 mm 1 mps 725 mmHg 45%
    13:00 +37°C° 0 mm 1 mps 724 mmHg 41%
    14:00 +37°C° 0 mm 1 mps 724 mmHg 40%
    15:00 +37°C° 0 mm 1 mps 723 mmHg 40%
    16:00 +36°C° 0 mm 1 mps 722 mmHg 39%
    17:00 +35°C° 0 mm 1 mps 723 mmHg 45%
    18:00 +33°C° 0 mm 1 mps 723 mmHg 50%
    19:00 +31°C° 0 mm 1 mps 723 mmHg 56%
    20:00 +30°C° 0 mm 2 mps 724 mmHg 60%
    21:00 +30°C° 0 mm 2 mps 724 mmHg 63%
    22:00 +29°C° 0 mm 3 mps 725 mmHg 66%
    23:00 +29°C° 0 mm 3 mps 725 mmHg 68%

    Pasado mañana, 18 Junio, Martes

    Tiempo Temperatura Precipitaciones Viento Presión Humedad
    00:00 +28°C° 0 mm 2 mps 725 mmHg 71%
    01:00 +27°C° 0 mm 2 mps 725 mmHg 73%
    02:00 +27°C° 0 mm 2 mps 725 mmHg 74%
    03:00 +26°C° 0 mm 2 mps 724 mmHg 75%
    04:00 +26°C° 0 mm 2 mps 724 mmHg 77%
    05:00 +26°C° 0 mm 2 mps 725 mmHg 76%
    06:00 +26°C° 0 mm 2 mps 725 mmHg 75%
    07:00 +27°C° 0 mm 2 mps 725 mmHg 75%
    08:00 +29°C° 0 mm 2 mps 726 mmHg 66%
    09:00 +31°C° 0 mm 2 mps 726 mmHg 57%
    10:00 +34°C° 0 mm 2 mps 726 mmHg 48%
    11:00 +36°C° 0 mm 2 mps 726 mmHg 45%
    12:00 +37°C° 0 mm 2 mps 725 mmHg 41%
    13:00 +37°C° 0 mm 1 mps 725 mmHg 38%
    14:00 +37°C° 0 mm 1 mps 724 mmHg 38%
    15:00 +37°C° 0 mm 1 mps 724 mmHg 38%
    16:00 +37°C° 0 mm 1 mps 723 mmHg 38%
    17:00 +35°C° 0 mm 1 mps 723 mmHg 45%
    18:00 +34°C° 0 mm 2 mps 723 mmHg 51%
    19:00 +31°C° 0 mm 2 mps 724 mmHg 58%
    20:00 +30°C° 0 mm 2 mps 724 mmHg 62%
    21:00 +29°C° 0 mm 2 mps 724 mmHg 65%
    22:00 +28°C° 0 mm 2 mps 725 mmHg 69%
    23:00 +28°C° 0 mm 2 mps 725 mmHg 72%

    19 Junio, Miércoles

    Tiempo Temperatura Precipitaciones Viento Presión Humedad
    00:00 +27°C° 0 mm 2 mps 725 mmHg 74%
    01:00 +27°C° 0 mm 2 mps 725 mmHg 77%
    02:00 +26°C° 0.2 mm 2 mps 724 mmHg 80%
    03:00 +26°C° 0.2 mm 2 mps 724 mmHg 83%
    04:00 +25°C° 0.2 mm 1 mps 724 mmHg 85%
    05:00 +26°C° 0.1 mm 2 mps 725 mmHg 84%
    06:00 +26°C° 0.1 mm 2 mps 725 mmHg 82%
    07:00 +26°C° 0.1 mm 2 mps 725 mmHg 80%
    08:00 +28°C° 0 mm 2 mps 726 mmHg 73%
    09:00 +30°C° 0 mm 2 mps 726 mmHg 66%
    10:00 +32°C° 0 mm 2 mps 726 mmHg 59%
    11:00 +34°C° 0 mm 2 mps 725 mmHg 53%
    12:00 +35°C° 0 mm 1 mps 725 mmHg 48%
    13:00 +36°C° 0 mm 1 mps 724 mmHg 42%
    14:00 +36°C° 0 mm 1 mps 724 mmHg 42%
    15:00 +36°C° 0 mm 1 mps 723 mmHg 41%
    16:00 +36°C° 0 mm 1 mps 723 mmHg 41%
    17:00 +34°C° 0 mm 1 mps 723 mmHg 47%
    18:00 +32°C° 0 mm 1 mps 723 mmHg 53%
    19:00 +30°C° 0 mm 2 mps 723 mmHg 60%
    20:00 +29°C° 0.2 mm 1 mps 724 mmHg 64%
    21:00 +29°C° 0.2 mm 1 mps 724 mmHg 68%
    22:00 +28°C° 0.2 mm 1 mps 725 mmHg 72%
    23:00 +27°C° 0.2 mm 1 mps 724 mmHg 76%

    20 Junio, Jueves

    Tiempo Temperatura Precipitaciones Viento Presión Humedad
    00:00 +26°C° 0.2 mm 1 mps 724 mmHg 79%
    01:00 +26°C° 0.2 mm 1 mps 724 mmHg 83%
    02:00 +26°C° 0 mm 1 mps 724 mmHg 84%
    03:00 +25°C° 0 mm 1 mps 724 mmHg 85%
    04:00 +25°C° 0 mm 2 mps 724 mmHg 87%
    05:00 +26°C° 0 mm 2 mps 724 mmHg 85%
    06:00 +26°C° 0 mm 2 mps 725 mmHg 83%
    07:00 +27°C° 0 mm 2 mps 725 mmHg 82%
    08:00 +28°C° 0.7 mm 2 mps 725 mmHg 76%
    09:00 +30°C° 0.7 mm 2 mps 726 mmHg 70%
    10:00 +31°C° 0.7 mm 2 mps 726 mmHg 63%
    11:00 +34°C° 0.3 mm 2 mps 726 mmHg 57%
    12:00 +35°C° 0.3 mm 1 mps 725 mmHg 50%
    13:00 +37°C° 0.3 mm 1 mps 724 mmHg 44%
    14:00 +36°C° 0 mm 1 mps 724 mmHg 43%
    15:00 +36°C° 0 mm 1 mps 723 mmHg 43%
    16:00 +37°C° 0 mm 2 mps 722 mmHg 43%
    17:00 +35°C° 0 mm 2 mps 722 mmHg 51%
    18:00 +32°C° 0 mm 2 mps 723 mmHg 59%
    19:00 +30°C° 0 mm 2 mps 723 mmHg 67%
    20:00 +29°C° 0 mm 2 mps 723 mmHg 69%
    21:00 +29°C° 0 mm 2 mps 724 mmHg 72%
    22:00 +28°C° 0 mm 2 mps 725 mmHg 74%
    23:00 +27°C° 0 mm 2 mps 724 mmHg 76%

    21 Junio, Viernes

    Tiempo Temperatura Precipitaciones Viento Presión Humedad
    00:00 +27°C° 0 mm 2 mps 724 mmHg 78%
    01:00 +27°C° 0 mm 1 mps 724 mmHg 80%
    02:00 +26°C° 0 mm 2 mps 724 mmHg 81%
    03:00 +26°C° 0 mm 2 mps 724 mmHg 82%
    04:00 +26°C° 0 mm 2 mps 724 mmHg 83%
    05:00 +26°C° 0 mm 2 mps 724 mmHg 82%
    06:00 +26°C° 0 mm 1 mps 725 mmHg 81%
    07:00 +27°C° 0 mm 1 mps 725 mmHg 79%
    08:00 +29°C° 0 mm 2 mps 726 mmHg 72%
    09:00 +30°C° 0 mm 2 mps 726 mmHg 64%
    10:00 +32°C° 0 mm 2 mps 727 mmHg 56%
    11:00 +34°C° 0.1 mm 1 mps 726 mmHg 51%
    12:00 +36°C° 0.1 mm 1 mps 725 mmHg 46%
    13:00 +37°C° 0.1 mm 1 mps 725 mmHg 41%
    14:00 +36°C° 0 mm 1 mps 724 mmHg 43%
    15:00 +36°C° 0 mm 1 mps 723 mmHg 44%
    16:00 +36°C° 0 mm 2 mps 722 mmHg 45%
    17:00 +34°C° 0 mm 2 mps 723 mmHg 51%
    18:00 +32°C° 0 mm 2 mps 723 mmHg 58%
    19:00 +30°C° 0 mm 2 mps 723 mmHg 64%
    20:00 +29°C° 0.2 mm 2 mps 723 mmHg 69%
    21:00 +28°C° 0.2 mm 2 mps 724 mmHg 74%
    22:00 +27°C° 0.2 mm 1 mps 724 mmHg 78%
    23:00 +27°C° 1.2 mm 1 mps 724 mmHg 82%
    Mostrar más